Miscellaneous Local Product
Issued by NWS North Platte, NE

Home | Current Version | Previous Version | Text Only | Print | Product List | Glossary On
Versions: 1 2 3 4 5 6 7 8 9 10 11 12 13 14 15 16 17 18 19 20 21 22 23 24 25 26 27 28 29 30 31 32 33 34 35 36 37 38 39 40 41 42 43 44 45 46 47 48 49 50
545
AXUS43 KLBF 271910
MISLBF


WESTERN AND NORTH CENTRAL NEBRASKA HOURLY WEATHER ROUNDUP
NATIONAL WEATHER SERVICE NORTH PLATTE NE
200 PM CDT TUE SEP 27 2016

NOTE: "FAIR" INDICATES FEW OR NO CLOUDS BELOW 12,000 FEET WITH NO
SIGNIFICANT WEATHER AND/OR OBSTRUCTIONS TO VISIBILITY.

NOTE: STATIONS NOT REPORTING VARIABLES SUCH AS SKY/WEATHER OR
PRESSURE ARE PROVIDED BY RAWS AND APRS NETWORKS AND ARE NOT UNDER
NATIONAL WEATHER SERVICE QUALITY CONTROL.

...OBSERVATIONS IN AND NEAR THE EASTERN PANHANDLE OF NEBRASKA...

CITY           SKY/WX    TMP DP  RH WIND       PRES   REMARKS
PINE RIDGE     SUNNY     81  42  25 SW9       30.04F
CHADRON        SUNNY     80  42  25 W13       30.04F
ALLIANCE       SUNNY     81  36  19 NW10      30.08F
SIDNEY         SUNNY     80  39  23 NW8       30.13F
CRESCENT LAKE    N/A     81  40  22 W9          N/A
$$

...OBSERVATIONS IN NORTHERN NEBRASKA AND FAR SOUTHERN SOUTH DAKOTA...

CITY           SKY/WX    TMP DP  RH WIND       PRES   REMARKS
WINNER         FAIR      81  42  25 NW15G21   29.95F
VALENTINE      SUNNY     80  42  25 NW15G24   29.99F
THEDFORD       SUNNY     81  46  29 W16       30.02F
AINSWORTH      SUNNY     77  45  32 W10G18    29.99F
O`NEILL        SUNNY     77  38  24 NW13G18   29.98F
ORD            SUNNY     78  43  28 NW8G16    29.97F
BROKEN BOW     SUNNY     80  44  27 W12       30.00F
VALENTINE NWR    N/A     78  45  30 W13         N/A
BUTTE            N/A     75  46  35 W9G20       N/A
HALSEY           N/A     80  45  28 W7G14       N/A
EWING            N/A     74  49  41 NW10G18     N/A
$$

...OBSERVATIONS IN SOUTHWEST NEBRASKA AND FAR NORTHEAST COLORADO...

CITY           SKY/WX    TMP DP  RH WIND       PRES   REMARKS
WRAY           FAIR      84  32  15 SW8       30.10
HOLYOKE        FAIR      84  37  18 W6        30.10F
IMPERIAL       SUNNY     80  38  22 SW7       30.08F
OGALLALA       SUNNY     82  42  23 SW12G17   30.06F
NORTH PLATTE   SUNNY     81  46  29 W13       30.03F
MCCOOK         SUNNY     80  45  28 W10       30.05F
LEXINGTON      SUNNY     79  44  28 NW12      30.02F
STAPLETON        N/A     84  47  27 CALM        N/A
GOTHENBURG       N/A     78  43  28 W3          N/A
CALLAWAY         N/A     77  46  33 NW13        N/A
$$

...OBSERVATIONS IN CENTRAL LINCOLN COUNTY AREA...

CITY           SKY/WX    TMP DP  RH WIND       PRES   REMARKS
N.P. AIRPORT   SUNNY     81  46  29 W13       30.03F
N.P. DOWNTOWN    N/A     80  48  32 W3G13       N/A
N.P. SOUTHEAST   N/A     80  47  30 NW3         N/A
N.P. HILLCREST   N/A     79  45  29 W12G18      N/A
$$

...SOME OBSERVATIONS FROM AROUND THE REGION...

CITY           SKY/WX    TMP DP  RH WIND       PRES   REMARKS
DENVER         MOSUNNY   77  31  18 CALM      30.20F
LARAMIE        SUNNY     68  32  26 N7        30.30F
CHEYENNE       SUNNY     77  22  13 MISG      30.22F
SCOTTSBLUFF    SUNNY     78  43  28 W6        30.11F
RAPID CITY     SUNNY     80  43  26 N9        30.02F
BISMARCK       SUNNY     70  40  33 NW9       29.96F
PIERRE         SUNNY     76  44  32 W12       29.93F
SIOUX FALLS    MOSUNNY   73  42  32 NW20G29   29.90F
OMAHA          SUNNY     77  42  28 W10       29.94F
GRAND ISLAND   SUNNY     78  44  29 NW12G22   29.99F
KANSAS CITY    SUNNY     75  52  44 W7        29.96F
WICHITA        SUNNY     79  53  40 W6        30.02F
OKLAHOMA CITY  MOSUNNY   78  46  32 S6        30.08F
DALLAS         PTSUNNY   77  45  32 N7        30.08F
AMARILLO       SUNNY     80  38  22 SW8       30.18F
DODGE CITY     SUNNY     87  38  17 NW8       30.07F
HAYS           SUNNY     84  45  24 NW12      30.03F
GOODLAND       SUNNY     82  36  19 MISG      30.10F
$$




USA.gov is the U.S. government's official web portal to all federal, state and local government web resources and services.